Location: Dumpton Point
(51.3500°N, 1.4433°E)
Time: 16:07:52
(UTC+00:00)

Tiros 1 - Visible Passes

Search period start: 24 September 2022 00:00
Search period end: 04 October 2022 00:00
Orbit: 629 x 663 km, 48.4° (Epoch: 23 September)

Date Brightness Start Highest point End Pass type
(mag) Time Alt. Az. Time Alt. Az. Time Alt. Az.
24 Sep 8.6 02:53:44 27° SE 02:53:44 27° SE 02:57:17 10° E visible
24 Sep 7.5 04:31:22 17° WSW 04:34:56 56° S 04:39:33 10° E visible
25 Sep 7.8 03:18:18 40° S 03:18:38 41° SSE 03:23:04 10° E visible
25 Sep 7.4 04:55:56 11° WSW 05:00:29 62° S 05:05:07 10° E visible
26 Sep 9.6 02:05:12 16° ESE 02:05:12 16° ESE 02:06:24 10° E visible
26 Sep 7.4 03:42:50 41° SW 03:44:06 54° SSE 03:48:42 10° E visible
27 Sep 8.8 02:29:45 27° ESE 02:29:45 27° ESE 02:32:12 10° E visible
27 Sep 7.3 04:07:23 29° WSW 04:09:38 62° S 04:14:17 10° E visible
28 Sep 7.9 02:54:18 43° SE 02:54:18 43° SE 02:57:51 10° E visible
28 Sep 7.4 04:31:56 19° W 04:35:11 59° S 04:39:48 10° ESE visible
29 Sep 10.0 01:41:13 11° E 01:41:13 11° E 01:41:21 10° E visible
29 Sep 7.2 03:18:52 61° S 03:18:52 61° S 03:23:26 10° E visible
29 Sep 7.6 04:56:30 12° W 05:00:40 48° SSW 05:05:11 10° ESE visible
30 Sep 9.5 02:05:49 17° E 02:05:49 17° E 02:07:00 10° E visible
30 Sep 7.2 03:43:28 50° SW 03:44:19 60° S 03:48:58 10° ESE visible
01 Oct 8.9 02:30:28 26° ESE 02:30:28 26° ESE 02:32:35 10° E visible
01 Oct 7.5 04:08:07 33° WSW 04:09:49 49° SSW 04:14:22 10° ESE visible
02 Oct 8.3 02:55:11 36° ESE 02:55:11 36° ESE 02:58:08 10° ESE visible
02 Oct 7.9 04:32:50 22° WSW 04:35:14 35° SSW 04:39:31 10° SE visible
03 Oct 7.8 03:19:59 43° SSE 03:19:59 43° SSE 03:23:33 10° ESE visible
03 Oct 8.5 04:57:39 14° WSW 05:00:30 23° SW 05:04:10 10° SSE visible
